GFSNE_prec_precacc12_234.txt.gz
Total_Precipitation_Accumulation
0.04 0.05 0.03 0.01 0.02 0.01 0.00 0.00 0.00 0.00 0.00 0.00 0.00 0.00 0.00 0.00 0.00 0.00 0.00 0.00 0.00 0.00 0.00 0.00 0.00 0.00 0.01 0.03 0.03 0.04 0.03 0.02 0.01 0.01 0.01 0.01 0.02 0.01
0.06 0.03 0.02 0.01 0.01 0.00 0.00 0.00 0.00 0.00 0.00 0.00 0.00 0.00 0.00 0.00 0.00 0.00 0.01 0.01 0.04 0.07 0.05 0.05 0.10 0.17 0.19 0.14 0.08 0.03 0.02 0.02 0.02 0.02 0.01 0.01 0.02 0.01
0.10 0.06 0.03 0.01 0.00 0.01 0.01 0.00 0.00 0.00 0.00 0.00 0.00 0.01 0.00 0.01 0.03 0.05 0.05 0.06 0.10 0.19 0.33 0.46 0.44 0.30 0.15 0.08 0.05 0.04 0.03 0.02 0.01 0.01 0.01 0.01 0.01 0.02
0.19 0.13 0.08 0.05 0.02 0.01 0.01 0.01 0.00 0.00 0.01 0.00 0.00 0.01 0.03 0.07 0.07 0.07 0.07 0.19 0.31 0.43 0.48 0.37 0.27 0.19 0.13 0.08 0.06 0.07 0.07 0.05 0.03 0.01 0.01 0.01 0.01 0.02
0.25 0.24 0.20 0.17 0.13 0.09 0.04 0.02 0.02 0.01 0.01 0.01 0.01 0.02 0.02 0.03 0.05 0.09 0.17 0.25 0.37 0.47 0.49 0.38 0.28 0.22 0.20 0.21 0.21 0.20 0.16 0.10 0.04 0.03 0.04 0.04 0.02 0.02
0.94 0.78 0.62 0.63 0.61 0.44 0.27 0.13 0.10 0.09 0.07 0.06 0.06 0.05 0.05 0.08 0.16 0.27 0.31 0.33 0.34 0.35 0.36 0.36 0.31 0.31 0.32 0.31 0.26 0.23 0.19 0.12 0.07 0.06 0.06 0.05 0.04 0.04
0.49 0.44 0.44 0.45 0.51 0.53 0.45 0.34 0.18 0.20 0.26 0.25 0.17 0.16 0.28 0.35 0.38 0.34 0.32 0.32 0.26 0.18 0.22 0.36 0.48 0.55 0.54 0.52 0.42 0.33 0.26 0.19 0.12 0.08 0.08 0.08 0.07 0.05
1.22 0.97 0.89 0.78 0.65 0.64 0.65 0.53 0.35 0.24 0.32 0.37 0.34 0.30 0.27 0.26 0.28 0.36 0.45 0.63 0.67 0.55 0.60 0.76 0.78 0.79 0.67 0.58 0.57 0.51 0.43 0.34 0.19 0.10 0.06 0.05 0.05 0.04
0.43 0.42 0.43 0.61 0.76 0.69 0.71 0.71 0.57 0.46 0.53 0.76 0.75 0.70 0.76 0.70 0.84 1.06 0.95 0.72 0.53 0.36 0.49 0.76 0.69 0.64 0.56 0.51 0.64 0.54 0.45 0.41 0.29 0.15 0.09 0.07 0.06 0.08
0.48 0.61 0.58 0.48 0.62 0.79 0.92 1.06 1.04 0.88 0.79 0.93 0.75 0.51 0.44 0.48 0.62 0.71 0.73 0.65 0.53 0.36 0.33 0.41 0.39 0.42 0.40 0.40 0.60 0.58 0.55 0.50 0.43 0.28 0.17 0.14 0.12 0.12
0.20 0.26 0.36 0.35 0.40 0.46 0.58 0.78 0.97 0.98 0.88 0.87 0.78 0.62 0.46 0.38 0.45 0.62 0.66 0.47 0.51 0.47 0.35 0.29 0.33 0.43 0.48 0.47 0.52 0.67 0.57 0.54 0.51 0.37 0.27 0.22 0.19 0.19
0.04 0.09 0.16 0.08 0.13 0.17 0.18 0.13 0.12 0.12 0.18 0.31 0.37 0.34 0.25 0.22 0.31 0.25 0.29 0.31 0.37 0.36 0.27 0.27 0.35 0.49 0.68 0.57 0.46 0.58 0.60 0.54 0.48 0.42 0.35 0.30 0.27 0.28
0.00 0.00 0.02 0.08 0.08 0.11 0.13 0.07 0.09 0.11 0.22 0.24 0.25 0.28 0.23 0.18 0.16 0.19 0.20 0.29 0.32 0.25 0.20 0.34 0.37 0.37 0.40 0.25 0.30 0.40 0.37 0.38 0.47 0.47 0.39 0.33 0.29 0.28
0.00 0.00 0.04 0.11 0.08 0.10 0.12 0.13 0.15 0.15 0.09 0.09 0.13 0.15 0.15 0.15 0.13 0.11 0.14 0.26 0.23 0.27 0.33 0.37 0.24 0.17 0.19 0.19 0.22 0.31 0.34 0.31 0.32 0.32 0.31 0.33 0.32 0.31
0.01 0.03 0.05 0.05 0.04 0.03 0.06 0.08 0.08 0.06 0.04 0.05 0.06 0.08 0.08 0.10 0.17 0.26 0.34 0.29 0.23 0.24 0.27 0.16 0.11 0.14 0.15 0.10 0.10 0.17 0.33 0.36 0.28 0.27 0.32 0.31 0.28 0.27
0.02 0.02 0.02 0.02 0.03 0.03 0.04 0.04 0.03 0.05 0.07 0.06 0.07 0.10 0.13 0.16 0.20 0.21 0.24 0.23 0.27 0.31 0.29 0.23 0.17 0.18 0.17 0.12 0.12 0.21 0.24 0.20 0.21 0.19 0.19 0.25 0.25 0.20
0.01 0.00 0.01 0.00 0.01 0.00 0.00 0.01 0.03 0.06 0.08 0.07 0.09 0.10 0.13 0.15 0.16 0.17 0.19 0.22 0.22 0.21 0.28 0.29 0.24 0.19 0.11 0.07 0.13 0.09 0.09 0.07 0.07 0.12 0.19 0.22 0.17 0.10
0.02 0.00 0.00 0.00 0.00 0.01 0.01 0.02 0.03 0.05 0.03 0.04 0.05 0.06 0.05 0.06 0.10 0.13 0.15 0.16 0.17 0.19 0.17 0.19 0.21 0.22 0.21 0.13 0.04 0.04 0.05 0.05 0.08 0.09 0.11 0.13 0.11 0.09
0.01 0.00 0.00 0.00 0.00 0.01 0.01 0.02 0.03 0.02 0.02 0.02 0.03 0.03 0.03 0.04 0.10 0.08 0.10 0.11 0.13 0.14 0.13 0.12 0.11 0.07 0.05 0.04 0.04 0.01 0.02 0.04 0.06 0.09 0.06 0.03 0.02 0.03
0.03 0.03 0.01 0.01 0.01 0.02 0.02 0.02 0.02 0.04 0.04 0.05 0.05 0.05 0.04 0.04 0.04 0.05 0.05 0.04 0.05 0.08 0.09 0.09 0.07 0.03 0.01 0.01 0.02 0.02 0.00 0.01 0.03 0.03 0.04 0.08 0.09 0.07
0.04 0.04 0.04 0.02 0.01 0.02 0.02 0.02 0.02 0.02 0.02 0.01 0.01 0.01 0.02 0.02 0.02 0.02 0.03 0.04 0.03 0.03 0.03 0.02 0.01 0.01 0.03 0.03 0.05 0.03 0.03 0.01 0.00 0.01 0.04 0.12 0.12 0.10
0.08 0.06 0.03 0.03 0.03 0.02 0.01 0.02 0.02 0.02 0.02 0.01 0.00 0.00 0.00 0.00 0.00 0.01 0.01 0.02 0.03 0.02 0.02 0.03 0.06 0.08 0.07 0.03 0.02 0.02 0.03 0.07 0.09 0.04 0.02 0.04 0.05 0.03
0.06 0.05 0.05 0.05 0.05 0.04 0.03 0.02 0.01 0.01 0.01 0.00 0.00 0.00 0.00 0.00 0.01 0.01 0.01 0.02 0.03 0.05 0.06 0.08 0.09 0.07 0.04 0.03 0.04 0.05 0.03 0.06 0.12 0.13 0.16 0.12 0.02 0.00

GFSNE_prec_precacc12_237.txt.gz
Total_Precipitation_Accumulation
0.13 0.11 0.07 0.04 0.02 0.02 0.03 0.02 0.02 0.00 0.00 0.00 0.00 0.00 0.00 0.00 0.00 0.00 0.00 0.00 0.00 0.00 0.00 0.00 0.00 0.00 0.01 0.03 0.03 0.03 0.03 0.02 0.02 0.02 0.02 0.01 0.02 0.02
0.13 0.05 0.03 0.02 0.03 0.02 0.01 0.01 0.02 0.00 0.00 0.00 0.00 0.00 0.00 0.00 0.00 0.00 0.01 0.01 0.01 0.02 0.02 0.01 0.05 0.14 0.18 0.14 0.08 0.03 0.02 0.02 0.02 0.02 0.02 0.01 0.02 0.02
0.16 0.12 0.06 0.09 0.02 0.01 0.02 0.00 0.00 0.00 0.00 0.00 0.00 0.01 0.01 0.00 0.00 0.00 0.00 0.00 0.03 0.06 0.11 0.22 0.27 0.22 0.12 0.06 0.05 0.03 0.03 0.02 0.01 0.01 0.01 0.01 0.01 0.02
0.26 0.18 0.17 0.15 0.09 0.04 0.02 0.01 0.00 0.00 0.00 0.00 0.00 0.01 0.01 0.02 0.01 0.00 0.01 0.02 0.05 0.09 0.15 0.13 0.12 0.10 0.08 0.06 0.06 0.06 0.06 0.07 0.06 0.04 0.04 0.03 0.02 0.03
0.44 0.39 0.27 0.23 0.24 0.17 0.08 0.05 0.03 0.02 0.02 0.01 0.00 0.01 0.00 0.00 0.01 0.02 0.02 0.01 0.03 0.12 0.20 0.18 0.15 0.13 0.15 0.18 0.19 0.18 0.16 0.13 0.10 0.09 0.09 0.07 0.05 0.03
1.17 1.06 0.86 0.83 0.80 0.68 0.52 0.31 0.30 0.26 0.14 0.07 0.06 0.04 0.01 0.00 0.00 0.01 0.02 0.07 0.17 0.21 0.22 0.24 0.21 0.20 0.22 0.23 0.22 0.21 0.22 0.23 0.23 0.21 0.18 0.12 0.09 0.05
0.55 0.54 0.55 0.56 0.69 0.78 0.83 0.68 0.57 0.65 0.64 0.42 0.27 0.18 0.10 0.06 0.06 0.09 0.13 0.20 0.19 0.12 0.12 0.19 0.30 0.40 0.47 0.52 0.47 0.42 0.36 0.32 0.28 0.22 0.18 0.16 0.12 0.07
1.10 0.88 0.88 0.79 0.66 0.64 0.66 0.54 0.40 0.33 0.35 0.35 0.42 0.50 0.47 0.39 0.34 0.36 0.45 0.62 0.66 0.54 0.59 0.71 0.68 0.64 0.51 0.50 0.59 0.62 0.55 0.47 0.39 0.29 0.22 0.19 0.16 0.11
0.47 0.39 0.40 0.60 0.69 0.61 0.63 0.60 0.54 0.50 0.56 0.78 0.77 0.72 0.75 0.69 0.84 1.10 1.01 0.78 0.59 0.39 0.45 0.58 0.48 0.47 0.41 0.43 0.58 0.57 0.56 0.54 0.50 0.44 0.40 0.33 0.26 0.20
0.19 0.32 0.41 0.32 0.43 0.55 0.69 0.80 0.82 0.80 0.73 0.84 0.74 0.51 0.45 0.47 0.62 0.71 0.72 0.66 0.51 0.30 0.20 0.19 0.13 0.19 0.22 0.24 0.45 0.50 0.61 0.64 0.72 0.66 0.51 0.38 0.28 0.22
0.06 0.14 0.17 0.21 0.32 0.27 0.37 0.66 0.86 0.94 0.85 0.79 0.76 0.60 0.43 0.33 0.39 0.56 0.58 0.41 0.41 0.35 0.26 0.19 0.21 0.25 0.29 0.29 0.33 0.53 0.52 0.58 0.62 0.55 0.46 0.40 0.35 0.31
0.00 0.03 0.06 0.04 0.08 0.10 0.11 0.09 0.10 0.10 0.16 0.26 0.33 0.32 0.24 0.22 0.29 0.22 0.26 0.29 0.30 0.24 0.16 0.17 0.22 0.27 0.37 0.34 0.30 0.41 0.52 0.55 0.55 0.55 0.49 0.45 0.44 0.42
0.00 0.00 0.01 0.05 0.04 0.05 0.07 0.05 0.08 0.08 0.13 0.16 0.20 0.22 0.20 0.17 0.15 0.18 0.18 0.26 0.26 0.18 0.15 0.22 0.17 0.15 0.19 0.12 0.14 0.21 0.25 0.33 0.47 0.52 0.46 0.42 0.41 0.41
0.00 0.00 0.04 0.08 0.05 0.07 0.09 0.12 0.14 0.11 0.03 0.02 0.06 0.09 0.10 0.12 0.11 0.11 0.12 0.21 0.17 0.20 0.28 0.29 0.12 0.08 0.10 0.10 0.11 0.17 0.23 0.24 0.28 0.31 0.31 0.40 0.43 0.44
0.00 0.02 0.03 0.03 0.03 0.03 0.05 0.06 0.07 0.04 0.03 0.04 0.03 0.04 0.04 0.05 0.13 0.25 0.35 0.31 0.26 0.25 0.25 0.14 0.08 0.07 0.08 0.05 0.04 0.09 0.25 0.29 0.26 0.27 0.33 0.34 0.36 0.39
0.01 0.01 0.01 0.02 0.02 0.02 0.03 0.03 0.02 0.03 0.04 0.03 0.04 0.05 0.06 0.08 0.12 0.16 0.23 0.24 0.28 0.30 0.29 0.23 0.15 0.12 0.12 0.09 0.08 0.16 0.19 0.18 0.21 0.20 0.21 0.29 0.34 0.33
0.01 0.00 0.00 0.00 0.00 0.00 0.00 0.00 0.01 0.02 0.03 0.01 0.03 0.03 0.06 0.08 0.10 0.12 0.16 0.20 0.21 0.19 0.25 0.27 0.24 0.18 0.10 0.07 0.12 0.09 0.08 0.07 0.08 0.12 0.20 0.26 0.23 0.17
0.02 0.00 0.00 0.00 0.00 0.01 0.01 0.01 0.01 0.03 0.01 0.01 0.01 0.02 0.03 0.04 0.07 0.11 0.15 0.17 0.18 0.20 0.19 0.22 0.22 0.21 0.18 0.11 0.05 0.04 0.05 0.05 0.08 0.09 0.11 0.14 0.14 0.14
0.01 0.00 0.00 0.00 0.00 0.00 0.00 0.01 0.02 0.01 0.02 0.02 0.02 0.02 0.03 0.04 0.11 0.06 0.07 0.09 0.13 0.12 0.12 0.13 0.11 0.07 0.06 0.05 0.04 0.01 0.02 0.04 0.06 0.09 0.06 0.04 0.03 0.04
0.01 0.01 0.00 0.01 0.01 0.01 0.01 0.01 0.01 0.02 0.02 0.03 0.03 0.04 0.04 0.03 0.02 0.03 0.05 0.05 0.05 0.08 0.10 0.09 0.07 0.03 0.01 0.01 0.02 0.02 0.00 0.01 0.03 0.04 0.05 0.08 0.08 0.08
0.03 0.03 0.04 0.02 0.01 0.02 0.02 0.01 0.02 0.03 0.04 0.01 0.01 0.02 0.03 0.03 0.03 0.04 0.04 0.07 0.06 0.04 0.05 0.05 0.03 0.02 0.02 0.01 0.02 0.02 0.02 0.01 0.00 0.01 0.04 0.10 0.09 0.08
0.08 0.06 0.03 0.03 0.03 0.02 0.01 0.02 0.02 0.05 0.03 0.02 0.01 0.01 0.01 0.01 0.01 0.01 0.02 0.03 0.03 0.03 0.03 0.06 0.08 0.07 0.05 0.02 0.02 0.01 0.03 0.06 0.06 0.04 0.02 0.02 0.03 0.02
0.06 0.05 0.05 0.05 0.05 0.04 0.03 0.03 0.02 0.03 0.02 0.02 0.01 0.00 0.00 0.00 0.01 0.01 0.01 0.02 0.03 0.04 0.05 0.07 0.09 0.07 0.03 0.03 0.03 0.03 0.03 0.05 0.08 0.10 0.12 0.08 0.01 0.00

GFSNE_prec_precacc12_243.txt.gz
Total_Precipitation_Accumulation
0.16 0.14 0.10 0.07 0.03 0.06 0.06 0.05 0.02 0.00 0.00 0.00 0.00 0.00 0.00 0.00 0.00 0.00 0.00 0.00 0.00 0.00 0.00 0.00 0.00 0.00 0.00 0.00 0.00 0.00 0.00 0.00 0.01 0.01 0.01 0.00 0.01 0.01
0.16 0.07 0.03 0.04 0.04 0.03 0.04 0.06 0.07 0.02 0.00 0.00 0.01 0.01 0.01 0.00 0.00 0.00 0.00 0.00 0.00 0.00 0.00 0.00 0.00 0.00 0.00 0.00 0.00 0.00 0.00 0.00 0.00 0.00 0.00 0.00 0.00 0.01
0.26 0.16 0.06 0.16 0.04 0.03 0.04 0.03 0.02 0.04 0.00 0.03 0.01 0.02 0.01 0.00 0.00 0.00 0.00 0.00 0.00 0.01 0.01 0.00 0.00 0.00 0.00 0.00 0.00 0.00 0.00 0.00 0.00 0.00 0.00 0.00 0.00 0.00
0.30 0.19 0.17 0.18 0.12 0.07 0.04 0.03 0.02 0.03 0.01 0.02 0.05 0.03 0.01 0.02 0.01 0.00 0.00 0.00 0.00 0.00 0.00 0.00 0.00 0.00 0.00 0.01 0.03 0.04 0.05 0.05 0.05 0.04 0.03 0.02 0.01 0.01
0.47 0.44 0.29 0.26 0.23 0.17 0.09 0.08 0.07 0.07 0.03 0.01 0.00 0.02 0.02 0.01 0.01 0.02 0.03 0.00 0.00 0.00 0.00 0.02 0.02 0.02 0.06 0.11 0.14 0.15 0.13 0.10 0.08 0.07 0.06 0.06 0.05 0.05
1.08 1.06 0.94 0.95 0.85 0.71 0.54 0.33 0.33 0.30 0.18 0.11 0.09 0.04 0.01 0.01 0.00 0.00 0.00 0.00 0.02 0.03 0.04 0.04 0.04 0.07 0.11 0.13 0.13 0.15 0.18 0.19 0.19 0.18 0.16 0.15 0.17 0.21
0.37 0.48 0.58 0.62 0.78 0.86 0.88 0.82 0.75 0.81 0.80 0.61 0.40 0.28 0.15 0.05 0.04 0.06 0.05 0.06 0.06 0.06 0.04 0.03 0.05 0.12 0.24 0.36 0.38 0.38 0.38 0.39 0.40 0.38 0.38 0.38 0.41 0.41
0.88 0.47 0.35 0.35 0.34 0.47 0.65 0.61 0.46 0.39 0.44 0.47 0.52 0.57 0.51 0.40 0.37 0.44 0.44 0.38 0.31 0.23 0.30 0.38 0.35 0.35 0.35 0.37 0.43 0.45 0.42 0.41 0.40 0.38 0.39 0.44 0.51 0.58
0.89 0.86 0.67 0.54 0.44 0.37 0.38 0.44 0.49 0.36 0.33 0.35 0.34 0.28 0.31 0.29 0.39 0.61 0.68 0.68 0.55 0.38 0.38 0.44 0.36 0.30 0.26 0.28 0.30 0.35 0.36 0.35 0.40 0.46 0.51 0.54 0.55 0.55
0.37 0.43 0.47 0.36 0.32 0.35 0.30 0.30 0.32 0.22 0.14 0.11 0.15 0.10 0.10 0.13 0.22 0.33 0.40 0.45 0.43 0.31 0.21 0.19 0.11 0.12 0.12 0.13 0.16 0.24 0.36 0.39 0.54 0.62 0.56 0.51 0.47 0.46
0.05 0.08 0.16 0.23 0.40 0.24 0.12 0.13 0.14 0.14 0.19 0.16 0.11 0.11 0.11 0.13 0.14 0.20 0.30 0.31 0.30 0.20 0.19 0.18 0.14 0.15 0.14 0.11 0.10 0.22 0.24 0.29 0.38 0.41 0.37 0.36 0.39 0.43
0.01 0.00 0.02 0.04 0.14 0.13 0.07 0.05 0.07 0.05 0.06 0.09 0.12 0.17 0.23 0.23 0.30 0.13 0.14 0.21 0.21 0.15 0.08 0.13 0.13 0.18 0.20 0.13 0.10 0.16 0.24 0.25 0.27 0.31 0.31 0.33 0.41 0.49
0.00 0.00 0.00 0.00 0.01 0.02 0.02 0.01 0.07 0.08 0.11 0.07 0.08 0.11 0.16 0.17 0.20 0.16 0.08 0.09 0.17 0.15 0.13 0.17 0.10 0.07 0.07 0.03 0.01 0.03 0.05 0.09 0.18 0.24 0.24 0.27 0.32 0.38
0.00 0.00 0.01 0.01 0.01 0.01 0.00 0.02 0.05 0.05 0.02 0.03 0.05 0.07 0.10 0.12 0.12 0.15 0.18 0.21 0.18 0.18 0.27 0.30 0.12 0.05 0.04 0.04 0.02 0.01 0.03 0.04 0.08 0.10 0.13 0.24 0.29 0.35
0.00 0.01 0.01 0.00 0.00 0.00 0.01 0.01 0.01 0.01 0.02 0.02 0.02 0.03 0.04 0.04 0.09 0.17 0.31 0.37 0.34 0.29 0.30 0.20 0.15 0.14 0.12 0.09 0.06 0.05 0.08 0.07 0.07 0.09 0.14 0.19 0.27 0.36
0.00 0.00 0.01 0.00 0.00 0.00 0.00 0.01 0.00 0.02 0.03 0.02 0.03 0.03 0.02 0.02 0.05 0.07 0.12 0.16 0.22 0.25 0.23 0.22 0.18 0.14 0.11 0.08 0.06 0.06 0.06 0.06 0.07 0.07 0.09 0.17 0.25 0.26
0.00 0.00 0.00 0.00 0.00 0.00 0.00 0.00 0.01 0.02 0.02 0.01 0.02 0.02 0.02 0.02 0.02 0.03 0.06 0.09 0.11 0.10 0.14 0.18 0.19 0.17 0.13 0.09 0.08 0.05 0.04 0.03 0.03 0.04 0.09 0.16 0.19 0.16
0.01 0.00 0.00 0.00 0.00 0.00 0.01 0.01 0.01 0.02 0.01 0.00 0.01 0.02 0.01 0.01 0.03 0.04 0.08 0.09 0.10 0.10 0.11 0.13 0.14 0.15 0.15 0.11 0.07 0.04 0.03 0.03 0.04 0.04 0.07 0.09 0.10 0.12
0.01 0.01 0.00 0.00 0.00 0.00 0.00 0.01 0.01 0.01 0.01 0.01 0.01 0.01 0.02 0.03 0.09 0.02 0.02 0.04 0.07 0.07 0.07 0.09 0.09 0.08 0.08 0.07 0.07 0.04 0.02 0.02 0.02 0.03 0.02 0.02 0.02 0.03
0.01 0.01 0.00 0.00 0.00 0.01 0.00 0.01 0.01 0.02 0.02 0.03 0.03 0.03 0.03 0.02 0.01 0.02 0.04 0.04 0.04 0.06 0.08 0.07 0.05 0.04 0.03 0.04 0.05 0.05 0.03 0.01 0.01 0.01 0.02 0.03 0.04 0.07
0.01 0.00 0.00 0.00 0.00 0.01 0.01 0.01 0.02 0.03 0.04 0.01 0.01 0.01 0.02 0.02 0.03 0.03 0.05 0.11 0.11 0.06 0.08 0.09 0.08 0.11 0.05 0.06 0.06 0.06 0.04 0.01 0.00 0.00 0.01 0.03 0.03 0.03
0.01 0.01 0.00 0.01 0.01 0.02 0.01 0.02 0.03 0.06 0.04 0.01 0.01 0.00 0.00 0.01 0.01 0.01 0.02 0.04 0.05 0.04 0.06 0.11 0.13 0.12 0.07 0.05 0.04 0.03 0.04 0.04 0.03 0.02 0.01 0.00 0.01 0.01
0.01 0.01 0.02 0.04 0.04 0.04 0.04 0.03 0.03 0.04 0.04 0.02 0.01 0.01 0.00 0.00 0.01 0.01 0.02 0.03 0.05 0.08 0.09 0.11 0.09 0.09 0.08 0.06 0.06 0.04 0.03 0.03 0.02 0.03 0.04 0.02 0.00 0.00

GFSNE_prec_precacc12_246.txt.gz
Total_Precipitation_Accumulation
0.15 0.11 0.08 0.07 0.03 0.06 0.06 0.05 0.03 0.00 0.00 0.00 0.00 0.00 0.00 0.00 0.00 0.00 0.00 0.00 0.00 0.00 0.00 0.00 0.00 0.00 0.00 0.00 0.00 0.00 0.00 0.00 0.00 0.01 0.01 0.00 0.00 0.01
0.13 0.06 0.02 0.03 0.04 0.03 0.04 0.06 0.07 0.02 0.00 0.00 0.01 0.01 0.01 0.00 0.00 0.00 0.00 0.00 0.00 0.00 0.00 0.00 0.00 0.00 0.00 0.00 0.00 0.00 0.00 0.00 0.00 0.00 0.00 0.00 0.00 0.00
0.19 0.13 0.05 0.15 0.04 0.03 0.04 0.03 0.02 0.04 0.00 0.03 0.01 0.01 0.01 0.00 0.00 0.00 0.00 0.00 0.00 0.00 0.00 0.00 0.00 0.00 0.00 0.00 0.00 0.00 0.00 0.00 0.00 0.00 0.00 0.00 0.00 0.00
0.20 0.12 0.12 0.16 0.11 0.07 0.04 0.03 0.02 0.04 0.01 0.02 0.05 0.03 0.01 0.02 0.01 0.00 0.00 0.00 0.00 0.00 0.00 0.00 0.00 0.00 0.00 0.00 0.00 0.00 0.00 0.01 0.03 0.03 0.03 0.02 0.01 0.01
0.37 0.30 0.16 0.17 0.15 0.13 0.08 0.08 0.07 0.07 0.04 0.02 0.01 0.03 0.02 0.01 0.01 0.02 0.03 0.00 0.00 0.00 0.00 0.00 0.00 0.00 0.00 0.00 0.01 0.02 0.02 0.04 0.06 0.07 0.06 0.06 0.05 0.05
0.34 0.42 0.45 0.42 0.32 0.35 0.35 0.25 0.28 0.26 0.16 0.11 0.08 0.04 0.02 0.02 0.00 0.00 0.00 0.00 0.02 0.03 0.03 0.03 0.02 0.01 0.01 0.01 0.02 0.04 0.08 0.15 0.18 0.17 0.16 0.15 0.17 0.21
0.26 0.25 0.26 0.30 0.44 0.50 0.57 0.59 0.65 0.72 0.70 0.56 0.39 0.26 0.14 0.04 0.02 0.04 0.03 0.04 0.06 0.06 0.04 0.03 0.03 0.05 0.11 0.16 0.19 0.22 0.25 0.32 0.36 0.37 0.37 0.38 0.41 0.43
0.96 0.55 0.38 0.38 0.31 0.33 0.45 0.48 0.42 0.41 0.44 0.43 0.47 0.51 0.47 0.35 0.33 0.39 0.33 0.23 0.14 0.10 0.13 0.16 0.14 0.10 0.08 0.10 0.17 0.24 0.26 0.29 0.32 0.36 0.41 0.45 0.53 0.64
1.27 1.18 1.03 0.96 0.78 0.52 0.51 0.54 0.77 0.81 0.58 0.39 0.33 0.21 0.16 0.17 0.26 0.46 0.51 0.49 0.35 0.26 0.22 0.20 0.14 0.13 0.10 0.12 0.13 0.21 0.25 0.25 0.31 0.42 0.52 0.56 0.58 0.58
0.76 0.86 0.95 0.81 0.91 0.99 0.77 0.75 0.74 0.65 0.63 0.59 0.36 0.26 0.29 0.27 0.31 0.22 0.24 0.32 0.39 0.32 0.24 0.18 0.06 0.07 0.05 0.06 0.09 0.15 0.26 0.30 0.40 0.51 0.52 0.49 0.46 0.46
0.25 0.22 0.34 0.44 0.54 0.42 0.39 0.37 0.38 0.50 0.60 0.55 0.40 0.29 0.22 0.20 0.16 0.17 0.25 0.26 0.23 0.13 0.11 0.11 0.06 0.04 0.03 0.03 0.02 0.07 0.12 0.16 0.23 0.27 0.28 0.30 0.33 0.39
0.13 0.03 0.04 0.07 0.17 0.19 0.18 0.16 0.17 0.13 0.15 0.26 0.35 0.28 0.27 0.26 0.37 0.14 0.05 0.13 0.13 0.08 0.04 0.06 0.03 0.03 0.05 0.05 0.04 0.05 0.11 0.13 0.16 0.18 0.18 0.23 0.31 0.40
0.17 0.08 0.01 0.01 0.02 0.03 0.05 0.07 0.13 0.17 0.23 0.18 0.13 0.13 0.17 0.20 0.26 0.25 0.10 0.06 0.09 0.06 0.07 0.08 0.04 0.03 0.04 0.02 0.01 0.02 0.05 0.06 0.09 0.10 0.10 0.15 0.20 0.26
0.06 0.07 0.05 0.02 0.01 0.01 0.00 0.01 0.04 0.06 0.06 0.08 0.06 0.07 0.07 0.10 0.12 0.17 0.24 0.20 0.17 0.10 0.17 0.23 0.12 0.04 0.03 0.03 0.02 0.01 0.01 0.02 0.03 0.03 0.03 0.10 0.15 0.22
0.06 0.04 0.04 0.02 0.01 0.01 0.00 0.00 0.00 0.01 0.02 0.02 0.02 0.03 0.05 0.05 0.10 0.16 0.29 0.42 0.35 0.27 0.28 0.21 0.17 0.16 0.16 0.12 0.08 0.06 0.08 0.04 0.04 0.04 0.05 0.08 0.15 0.25
0.02 0.02 0.02 0.01 0.01 0.01 0.00 0.00 0.00 0.01 0.02 0.02 0.02 0.02 0.01 0.01 0.02 0.03 0.07 0.14 0.21 0.23 0.22 0.22 0.19 0.15 0.13 0.10 0.07 0.06 0.06 0.06 0.04 0.03 0.03 0.07 0.12 0.16
0.00 0.00 0.00 0.01 0.01 0.01 0.01 0.01 0.01 0.01 0.01 0.01 0.01 0.01 0.01 0.01 0.01 0.01 0.02 0.03 0.05 0.05 0.08 0.13 0.15 0.15 0.13 0.11 0.09 0.07 0.06 0.05 0.05 0.06 0.07 0.09 0.11 0.11
0.01 0.01 0.00 0.01 0.01 0.00 0.01 0.01 0.01 0.01 0.00 0.00 0.00 0.01 0.01 0.01 0.02 0.03 0.05 0.07 0.06 0.06 0.07 0.08 0.08 0.10 0.12 0.10 0.09 0.04 0.03 0.03 0.04 0.05 0.06 0.06 0.07 0.10
0.01 0.01 0.00 0.00 0.00 0.00 0.00 0.00 0.00 0.00 0.00 0.00 0.01 0.01 0.02 0.03 0.09 0.02 0.02 0.03 0.05 0.05 0.03 0.04 0.06 0.06 0.06 0.06 0.06 0.05 0.02 0.01 0.01 0.02 0.01 0.01 0.01 0.02
0.01 0.01 0.00 0.00 0.00 0.00 0.00 0.00 0.00 0.00 0.00 0.01 0.01 0.02 0.03 0.02 0.01 0.01 0.02 0.02 0.02 0.03 0.05 0.05 0.04 0.03 0.03 0.04 0.05 0.06 0.07 0.03 0.02 0.01 0.01 0.02 0.02 0.05
0.01 0.01 0.00 0.00 0.00 0.00 0.00 0.00 0.00 0.01 0.02 0.01 0.01 0.01 0.02 0.03 0.02 0.03 0.04 0.10 0.10 0.05 0.07 0.09 0.08 0.15 0.07 0.09 0.09 0.09 0.08 0.08 0.05 0.03 0.02 0.02 0.01 0.01
0.01 0.01 0.01 0.00 0.00 0.00 0.00 0.00 0.01 0.04 0.02 0.01 0.01 0.00 0.00 0.01 0.01 0.01 0.02 0.04 0.05 0.03 0.05 0.10 0.12 0.12 0.08 0.07 0.06 0.05 0.08 0.09 0.06 0.03 0.01 0.01 0.00 0.00
0.01 0.01 0.01 0.01 0.00 0.01 0.00 0.01 0.02 0.03 0.03 0.02 0.01 0.01 0.01 0.01 0.01 0.01 0.02 0.03 0.05 0.07 0.09 0.10 0.08 0.09 0.09 0.08 0.09 0.08 0.08 0.08 0.06 0.05 0.03 0.01 0.00 0.00

GFSNE_prec_precacc12_249.txt.gz
Total_Precipitation_Accumulation
0.06 0.05 0.03 0.03 0.02 0.04 0.03 0.03 0.01 0.00 0.00 0.00 0.00 0.00 0.00 0.00 0.00 0.00 0.00 0.00 0.00 0.00 0.00 0.00 0.00 0.00 0.00 0.00 0.00 0.00 0.00 0.00 0.00 0.01 0.00 0.00 0.00 0.01
0.07 0.03 0.00 0.02 0.02 0.02 0.03 0.05 0.06 0.02 0.00 0.00 0.00 0.01 0.01 0.00 0.00 0.00 0.00 0.00 0.00 0.00 0.00 0.00 0.00 0.00 0.00 0.00 0.00 0.00 0.00 0.00 0.00 0.00 0.00 0.00 0.00 0.00
0.14 0.06 0.01 0.07 0.02 0.02 0.02 0.03 0.02 0.04 0.00 0.03 0.00 0.00 0.00 0.00 0.00 0.00 0.00 0.00 0.00 0.00 0.00 0.00 0.00 0.00 0.00 0.00 0.00 0.00 0.00 0.00 0.00 0.00 0.00 0.00 0.00 0.00
0.14 0.06 0.03 0.06 0.05 0.04 0.02 0.02 0.02 0.03 0.01 0.02 0.05 0.02 0.01 0.01 0.01 0.00 0.00 0.00 0.00 0.00 0.00 0.00 0.00 0.00 0.00 0.00 0.00 0.00 0.00 0.00 0.00 0.00 0.00 0.00 0.00 0.00
0.18 0.15 0.09 0.11 0.04 0.03 0.02 0.04 0.05 0.05 0.02 0.01 0.01 0.03 0.02 0.01 0.01 0.01 0.02 0.00 0.00 0.00 0.00 0.00 0.00 0.00 0.00 0.00 0.00 0.00 0.00 0.00 0.00 0.00 0.01 0.02 0.03 0.04
0.10 0.13 0.19 0.20 0.12 0.07 0.07 0.05 0.06 0.06 0.07 0.07 0.05 0.03 0.02 0.02 0.00 0.00 0.00 0.00 0.02 0.02 0.02 0.02 0.01 0.00 0.00 0.00 0.00 0.00 0.00 0.00 0.01 0.01 0.03 0.08 0.13 0.19
0.21 0.14 0.14 0.18 0.23 0.22 0.16 0.22 0.22 0.21 0.22 0.24 0.18 0.15 0.10 0.04 0.01 0.03 0.03 0.03 0.05 0.06 0.03 0.02 0.02 0.02 0.02 0.04 0.06 0.07 0.08 0.13 0.16 0.21 0.27 0.31 0.36 0.42
1.04 0.58 0.37 0.36 0.27 0.30 0.39 0.42 0.31 0.26 0.30 0.29 0.24 0.21 0.16 0.13 0.20 0.33 0.29 0.18 0.08 0.04 0.06 0.05 0.03 0.03 0.03 0.02 0.03 0.05 0.07 0.09 0.10 0.16 0.26 0.36 0.48 0.63
1.67 1.49 1.10 0.99 0.79 0.54 0.52 0.55 0.73 0.71 0.46 0.28 0.23 0.16 0.14 0.16 0.23 0.39 0.44 0.41 0.29 0.20 0.18 0.15 0.06 0.03 0.02 0.02 0.03 0.05 0.05 0.04 0.06 0.12 0.20 0.31 0.40 0.48
1.12 1.38 1.33 1.08 1.09 1.17 0.91 0.83 0.79 0.68 0.64 0.61 0.44 0.32 0.32 0.38 0.45 0.38 0.35 0.44 0.46 0.36 0.28 0.23 0.10 0.08 0.05 0.06 0.06 0.06 0.06 0.05 0.05 0.12 0.19 0.26 0.33 0.39
0.62 0.69 0.85 0.95 0.83 0.80 0.79 0.71 0.66 0.70 0.80 0.80 0.62 0.56 0.50 0.44 0.44 0.57 0.70 0.58 0.52 0.33 0.23 0.19 0.10 0.06 0.05 0.03 0.01 0.03 0.02 0.01 0.03 0.06 0.09 0.14 0.20 0.31
0.30 0.36 0.42 0.36 0.47 0.39 0.46 0.50 0.34 0.30 0.31 0.46 0.67 0.72 0.61 0.52 0.58 0.38 0.27 0.29 0.24 0.14 0.08 0.09 0.05 0.06 0.08 0.04 0.02 0.02 0.02 0.01 0.01 0.02 0.03 0.07 0.15 0.26
0.42 0.30 0.28 0.31 0.16 0.14 0.17 0.15 0.19 0.23 0.28 0.25 0.28 0.36 0.39 0.35 0.40 0.39 0.21 0.14 0.16 0.09 0.10 0.15 0.08 0.05 0.07 0.04 0.01 0.02 0.02 0.02 0.01 0.01 0.03 0.06 0.08 0.13
0.38 0.37 0.27 0.24 0.24 0.15 0.08 0.08 0.10 0.10 0.08 0.13 0.19 0.24 0.28 0.28 0.24 0.25 0.33 0.27 0.21 0.09 0.13 0.22 0.13 0.07 0.06 0.06 0.03 0.01 0.00 0.00 0.00 0.00 0.01 0.03 0.05 0.09
0.20 0.24 0.31 0.23 0.13 0.09 0.12 0.08 0.04 0.03 0.04 0.04 0.05 0.10 0.18 0.25 0.26 0.24 0.33 0.43 0.31 0.22 0.23 0.17 0.16 0.17 0.17 0.15 0.11 0.08 0.08 0.04 0.04 0.03 0.04 0.04 0.07 0.13
0.06 0.08 0.12 0.16 0.15 0.09 0.07 0.06 0.04 0.03 0.02 0.02 0.02 0.03 0.05 0.09 0.10 0.10 0.10 0.12 0.17 0.18 0.16 0.18 0.19 0.17 0.18 0.16 0.13 0.11 0.08 0.07 0.05 0.04 0.04 0.05 0.05 0.04
0.01 0.01 0.02 0.04 0.07 0.08 0.07 0.07 0.07 0.04 0.01 0.01 0.01 0.01 0.01 0.02 0.02 0.04 0.04 0.04 0.05 0.05 0.06 0.11 0.16 0.15 0.12 0.10 0.10 0.09 0.10 0.09 0.08 0.09 0.07 0.06 0.07 0.05
0.00 0.01 0.00 0.01 0.02 0.01 0.02 0.02 0.02 0.02 0.01 0.01 0.01 0.00 0.00 0.00 0.01 0.01 0.01 0.01 0.02 0.02 0.03 0.04 0.04 0.06 0.09 0.10 0.12 0.04 0.04 0.04 0.05 0.07 0.08 0.08 0.07 0.06
0.01 0.01 0.00 0.00 0.00 0.00 0.01 0.01 0.01 0.01 0.01 0.01 0.02 0.01 0.01 0.01 0.05 0.01 0.01 0.01 0.01 0.03 0.02 0.02 0.03 0.05 0.05 0.05 0.06 0.05 0.02 0.01 0.01 0.02 0.02 0.02 0.03 0.03
0.01 0.01 0.00 0.00 0.00 0.00 0.00 0.00 0.00 0.00 0.00 0.00 0.01 0.01 0.02 0.03 0.04 0.03 0.01 0.01 0.01 0.01 0.02 0.03 0.04 0.03 0.03 0.04 0.05 0.06 0.08 0.03 0.02 0.02 0.02 0.01 0.03 0.06
0.01 0.01 0.00 0.00 0.00 0.00 0.00 0.00 0.00 0.00 0.01 0.00 0.00 0.00 0.01 0.01 0.02 0.02 0.03 0.08 0.08 0.03 0.04 0.05 0.06 0.15 0.07 0.10 0.11 0.11 0.11 0.13 0.08 0.05 0.06 0.06 0.04 0.03
0.01 0.01 0.01 0.00 0.00 0.01 0.00 0.00 0.00 0.02 0.00 0.00 0.00 0.00 0.00 0.00 0.00 0.01 0.01 0.02 0.02 0.01 0.03 0.07 0.10 0.12 0.08 0.07 0.06 0.06 0.09 0.12 0.12 0.11 0.08 0.06 0.03 0.03
0.01 0.01 0.01 0.01 0.01 0.01 0.00 0.00 0.01 0.01 0.01 0.00 0.00 0.01 0.01 0.01 0.01 0.01 0.02 0.03 0.05 0.06 0.08 0.09 0.08 0.10 0.10 0.09 0.11 0.09 0.09 0.09 0.09 0.09 0.08 0.06 0.03 0.02